Overview Statistics Trail Chart Weather Telemetry Raw packets
 

This is the latest recevied weather packets stored in our database for station/object IZ5MMH-3. If no packets are shown the sender has not sent any weather packets the latest 10 day(s).

<< 4 5 6 7 8 9 10 >>
Time Temp. Humidity Pressure Rain* Wind** Luminosity Snow
1788483229 23.33° C 70% 1018.4 hPa - - - -
1788482630 23.33° C 70% 1018.5 hPa - - - -
1788482029 23.89° C 72% 1018.6 hPa - - - -
1788481429 23.89° C 72% 1018.5 hPa - - - -
1788480830 23.89° C 70% 1018.4 hPa - - - -
1788480229 23.89° C 70% 1018.6 hPa - - - -
1788479630 23.89° C 73% 1018.4 hPa - - - -
1788479029 23.89° C 73% 1018.6 hPa - - - -
1788478429 23.89° C 74% 1018.4 hPa - - - -
1788477830 23.89° C 71% 1018.5 hPa - - - -
1788477229 23.89° C 70% 1018.4 hPa - - - -
1788476629 23.89° C 70% 1018.5 hPa - - - -
1788476029 24.44° C 70% 1018.5 hPa - - - -
1788475429 24.44° C 69% 1018.4 hPa - - - -
1788474829 24.44° C 68% 1018.3 hPa - - - -
1788474229 24.44° C 69% 1018.3 hPa - - - -
1788473629 25° C 68% 1018.3 hPa - - - -
1788473029 25° C 67% 1018.1 hPa - - - -
1788472429 25° C 66% 1018.1 hPa - - - -
1788471829 25° C 67% 1018.3 hPa - - - -
1788471229 25° C 66% 1018.1 hPa - - - -
1788470629 25° C 67% 1018.1 hPa - - - -
1788470029 25.56° C 67% 1018.1 hPa - - - -
1788469429 25.56° C 67% 1018 hPa - - - -
1788468829 25.56° C 69% 1018 hPa - - - -

* Rain since midnight (hover to see other rain measurements)
** Current wind speed in m/s (hover to see current wind gust speed)